{"data":{"norad_id":64119,"epoch":"2026-05-25T01:13:29.015328Z","epoch_age_seconds":71382,"freshness":"FRESH","line1":"1 64119U 25110Z   26145.05103027  .00027573  00000+0  64031-3 0  9996","line2":"2 64119  53.1586  29.2361 0000857 122.8903 237.2186 15.42182760 57613","mean_motion":15.4218276,"eccentricity":8.57e-5,"inclination_deg":53.1586,"raan_deg":29.2361,"arg_perigee_deg":122.8903,"mean_anomaly_deg":237.2186,"bstar":0.00064031,"rev_number":5761,"period_min":93.374147173063,"perigee_km":439.08428744201,"apogee_km":440.25285931729,"semimajor_km":6817.8055733797,"source":"CELESTRAK","updated_at":"2026-05-25T13:38:20.269126Z"}}